Flag for Canada Weather past 2 weeks in Brandon, Manitoba, Canada

Now
70 °F

Broken clouds.


Feels Like: 70 °F
Forecast: 56 / 70 °F
Wind: 21 mph from Southwest

Location: Brandon

Current Time: Jul 28, 2015 at 1:23:55 PM

Latest Report: Jul 28, 2015 at 1:00 PM


Visibility: 15 mi

Pressure: 29.44 "Hg

Humidity: 64%

Dew point: 57 °F

Location of BrandonLocation

Historic Weather in Brandon — Graph

°F

Brandon temperature yesterday

Maximum temperature yesterday: 86 °F (at 4:00 PM)
Minimum temperature yesterday: 55 °F (at 3:00 AM)
Average temperature yesterday: 72 °F

Past Weeks' High & Low Weather Summary

 TemperatureHumidityPressure
High86 °F (Jul 26, 2:00 PM)100% (Jul 14, 10:00 PM)30.00 "Hg (Jul 14, 10:00 PM)
Low46 °F (Jul 21, 5:00 AM)45% (Jul 25, 4:00 PM)29.45 "Hg (Jul 28, 12:00 PM)
Average68 °F81%29.79 "Hg
* Reported Jul 13 12:00 Noon — Jul 28 12:00 Noon, Brandon, Weather by CustomWeather, © 2015

Note: Actual official high and low records may vary slightly from our data, if they occured in-between our weather recording intervals... More about our weather records

Advertising

Brandon weather history for previous 24 hours

 ConditionsComfort  
Time TempWeatherWind HumidityBarometerVisibility
12:00 PM
Tue, Jul 28
70 °FPartly sunny.23 mph69%29.45 "Hg15 mi
11:00 AM70 °FPartly sunny.18 mph73%29.46 "Hg15 mi
10:00 AM68 °FPartly sunny.20 mph78%29.47 "Hg15 mi
9:00 AM68 °FScattered clouds.13 mph88%29.47 "Hg15 mi
8:00 AM68 °FScattered clouds.12 mph88%29.48 "Hg15 mi
7:00 AM70 °FPassing clouds.9 mph94%29.48 "Hg15 mi
6:00 AM72 °FFog.7 mph100%29.46 "Hg3 mi
5:53 AM73 °FFog.8 mph94%29.46 "Hg5 mi
5:00 AM73 °FOvercast.12 mph94%29.49 "Hg15 mi
4:00 AM73 °FMostly cloudy.8 mph94%29.50 "Hg15 mi
3:00 AM73 °FMostly cloudy.12 mph94%29.53 "Hg15 mi
2:00 AM75 °FOvercast.14 mph89%29.53 "Hg15 mi
1:00 AM75 °FMostly cloudy.15 mph89%29.59 "Hg15 mi
12:00 AM73 °FThunderstorms. Mostly cloudy.13 mph94%29.65 "Hg15 mi
11:00 PM
Mon, Jul 27
75 °FThunderstorms. Overcast.14 mph89%29.68 "Hg10 mi
10:00 PM77 °FThunderstorms. Mostly cloudy.14 mph79%29.70 "Hg15 mi
9:00 PM77 °FPartly sunny.10 mph79%29.73 "Hg15 mi
8:00 PM81 °FBroken clouds.13 mph70%29.74 "Hg15 mi
7:00 PM84 °FBroken clouds.13 mph62%29.75 "Hg15 mi
6:00 PM86 °FBroken clouds.13 mph55%29.77 "Hg15 mi
5:00 PM86 °FBroken clouds.14 mph59%29.77 "Hg15 mi
4:00 PM86 °FPartly sunny.17 mph52%29.78 "Hg15 mi
3:00 PM84 °FPartly sunny.17 mph66%29.76 "Hg15 mi
2:00 PM81 °FBroken clouds.18 mph70%29.81 "Hg15 mi
1:00 PM81 °FBroken clouds.17 mph62%29.84 "Hg15 mi
Weather by CustomWeather, © 2015

See weather overviewHow to use our weather pages